Time,TemperatureF,DewpointF,PressureIn,WindDirection,WindDirectionDegrees,WindSpeedMPH,WindSpeedGustMPH,Humidity,HourlyPrecipIn,Conditions,Clouds,dailyrainin,SolarRadiationWatts/m^2,SoftwareType,DateUTC
2013-10-10 00:03:00,49.0,46.0,-100.00,West,265,1.0,4.0,91,0.00,,,0.00,0.000000,,2013-10-10 05:03:00,
2013-10-10 00:43:00,48.0,45.0,-100.00,SE,139,4.0,6.0,91,0.00,,,0.00,0.000000,,2013-10-10 05:43:00,
2013-10-10 00:53:00,48.0,45.0,-100.00,SE,139,4.0,6.0,91,0.00,,,0.00,0.000000,,2013-10-10 05:53:00,
2013-10-10 01:03:00,48.0,45.0,-100.00,SE,139,4.0,6.0,91,0.00,,,0.00,0.000000,,2013-10-10 06:03:00,
2013-10-10 01:43:00,50.0,46.0,-100.00,South,175,3.0,6.0,85,0.00,,,0.00,0.000000,,2013-10-10 06:43:00,
2013-10-10 01:53:00,50.0,46.0,-100.00,South,175,3.0,6.0,85,0.00,,,0.00,0.000000,,2013-10-10 06:53:00,
2013-10-10 02:02:00,50.0,46.0,-100.00,South,175,3.0,6.0,85,0.00,,,0.00,0.000000,,2013-10-10 07:02:00,
2013-10-10 02:42:00,47.0,44.0,-100.00,SSE,164,0.0,5.0,90,0.00,,,0.00,0.000000,,2013-10-10 07:42:00,
2013-10-10 02:52:00,47.0,44.0,-100.00,SSE,164,0.0,5.0,90,0.00,,,0.00,0.000000,,2013-10-10 07:52:00,
2013-10-10 03:02:00,47.0,44.0,-100.00,SSE,164,0.0,5.0,90,0.00,,,0.00,0.000000,,2013-10-10 08:02:00,
2013-10-10 03:22:00,47.0,45.0,-100.00,SE,129,3.0,6.0,93,0.00,,,0.00,0.000000,,2013-10-10 08:22:00,
2013-10-10 03:32:00,47.0,45.0,-100.00,SE,129,3.0,6.0,93,0.00,,,0.00,0.000000,,2013-10-10 08:32:00,
2013-10-10 03:43:00,47.0,45.0,-100.00,SE,129,3.0,6.0,93,0.00,,,0.00,0.000000,,2013-10-10 08:43:00,
2013-10-10 03:52:00,47.0,45.0,-100.00,SE,129,3.0,6.0,93,0.00,,,0.00,0.000000,,2013-10-10 08:52:00,
2013-10-10 04:02:00,47.0,45.0,-100.00,SE,129,3.0,6.0,93,0.00,,,0.00,0.000000,,2013-10-10 09:02:00,
2013-10-10 04:43:00,45.0,44.0,-100.00,ESE,118,0.0,5.0,95,0.00,,,0.00,0.000000,,2013-10-10 09:43:00,
2013-10-10 04:53:00,45.0,44.0,-100.00,ESE,118,0.0,5.0,95,0.00,,,0.00,0.000000,,2013-10-10 09:53:00,
2013-10-10 05:03:00,45.0,44.0,-100.00,ESE,118,0.0,5.0,95,0.00,,,0.00,0.000000,,2013-10-10 10:03:00,
2013-10-10 05:43:00,44.0,42.0,-100.00,ESE,120,0.0,3.0,94,0.00,,,0.00,0.000000,,2013-10-10 10:43:00,
2013-10-10 05:53:00,44.0,42.0,-100.00,ESE,120,0.0,3.0,94,0.00,,,0.00,0.000000,,2013-10-10 10:53:00,
2013-10-10 06:03:00,44.0,42.0,-100.00,ESE,120,0.0,3.0,94,0.00,,,0.00,0.000000,,2013-10-10 11:03:00,
2013-10-10 09:42:00,56.0,49.0,-100.00,SSE,160,4.0,7.0,76,-99.99,,,0.00,142.000000,,2013-10-10 14:42:00,
2013-10-10 09:52:00,56.0,49.0,-100.00,SSE,160,4.0,7.0,76,-99.99,,,0.00,142.000000,,2013-10-10 14:52:00,
2013-10-10 10:02:00,56.0,49.0,-100.00,SSE,160,4.0,7.0,76,-99.99,,,0.00,142.000000,,2013-10-10 15:02:00,
2013-10-10 10:43:00,61.0,49.0,-100.00,SSE,166,8.0,11.0,65,0.00,,,0.00,296.000000,,2013-10-10 15:43:00,
2013-10-10 10:54:00,61.0,49.0,-100.00,SSE,166,8.0,11.0,65,0.00,,,0.00,296.000000,,2013-10-10 15:54:00,
2013-10-10 11:03:00,61.0,49.0,-100.00,SSE,166,8.0,11.0,65,0.00,,,0.00,296.000000,,2013-10-10 16:03:00,
2013-10-10 11:23:00,64.0,48.0,-100.00,SSE,161,8.0,14.0,56,0.00,,,0.00,401.000000,,2013-10-10 16:23:00,
2013-10-10 11:33:00,64.0,48.0,-100.00,SSE,161,8.0,14.0,56,0.00,,,0.00,401.000000,,2013-10-10 16:33:00,
2013-10-10 11:42:00,64.0,48.0,-100.00,SSE,161,8.0,14.0,56,0.00,,,0.00,401.000000,,2013-10-10 16:42:00,
2013-10-10 11:53:00,64.0,48.0,-100.00,SSE,161,8.0,14.0,56,0.00,,,0.00,401.000000,,2013-10-10 16:53:00,
2013-10-10 12:02:00,64.0,48.0,-100.00,SSE,161,8.0,14.0,56,0.00,,,0.00,401.000000,,2013-10-10 17:02:00,
2013-10-10 12:23:00,69.0,48.0,-100.00,SSE,164,13.0,18.0,47,0.00,,,0.00,465.000000,,2013-10-10 17:23:00,
2013-10-10 12:33:00,69.0,48.0,-100.00,SSE,164,13.0,18.0,47,0.00,,,0.00,465.000000,,2013-10-10 17:33:00,
2013-10-10 12:42:00,69.0,48.0,-100.00,SSE,164,13.0,18.0,47,0.00,,,0.00,465.000000,,2013-10-10 17:42:00,
2013-10-10 12:53:00,69.0,48.0,-100.00,SSE,164,13.0,18.0,47,0.00,,,0.00,465.000000,,2013-10-10 17:53:00,
2013-10-10 13:02:00,69.0,48.0,-100.00,SSE,164,13.0,18.0,47,0.00,,,0.00,465.000000,,2013-10-10 18:02:00,
2013-10-10 13:42:00,71.0,46.0,-100.00,South,179,11.0,23.0,41,0.00,,,0.00,563.000000,,2013-10-10 18:42:00,
2013-10-10 13:52:00,71.0,46.0,-100.00,South,179,11.0,23.0,41,0.00,,,0.00,563.000000,,2013-10-10 18:52:00,
2013-10-10 14:01:00,71.0,46.0,-100.00,South,179,11.0,23.0,41,0.00,,,0.00,563.000000,,2013-10-10 19:01:00,
2013-10-10 14:22:00,72.0,45.0,-100.00,SSE,164,14.0,24.0,38,0.00,,,0.00,584.000000,,2013-10-10 19:22:00,
2013-10-10 14:32:00,72.0,45.0,-100.00,SSE,164,14.0,24.0,38,0.00,,,0.00,584.000000,,2013-10-10 19:32:00,
2013-10-10 14:42:00,72.0,45.0,-100.00,SSE,164,14.0,24.0,38,0.00,,,0.00,584.000000,,2013-10-10 19:42:00,
2013-10-10 14:53:00,72.0,45.0,-100.00,SSE,164,14.0,24.0,38,0.00,,,0.00,584.000000,,2013-10-10 19:53:00,
2013-10-10 15:02:00,72.0,45.0,-100.00,SSE,164,14.0,24.0,38,0.00,,,0.00,584.000000,,2013-10-10 20:02:00,
2013-10-10 15:22:00,72.0,44.0,-100.00,SSE,167,13.0,23.0,36,0.00,,,0.00,447.000000,,2013-10-10 20:22:00,
2013-10-10 15:32:00,72.0,44.0,-100.00,SSE,167,13.0,23.0,36,0.00,,,0.00,447.000000,,2013-10-10 20:32:00,
2013-10-10 15:42:00,72.0,44.0,-100.00,SSE,167,13.0,23.0,36,0.00,,,0.00,447.000000,,2013-10-10 20:42:00,
2013-10-10 15:52:00,72.0,44.0,-100.00,SSE,167,13.0,23.0,36,0.00,,,0.00,447.000000,,2013-10-10 20:52:00,
2013-10-10 16:03:00,72.0,44.0,-100.00,SSE,167,13.0,23.0,36,0.00,,,0.00,447.000000,,2013-10-10 21:03:00,
2013-10-10 16:04:00,72.0,44.0,-100.00,SSE,160,13.0,21.0,37,0.00,,,0.00,373.000000,,2013-10-10 21:04:00,
2013-10-10 16:44:00,72.0,44.0,-100.00,SSE,160,13.0,21.0,37,0.00,,,0.00,373.000000,,2013-10-10 21:44:00,
2013-10-10 16:54:00,72.0,44.0,-100.00,SSE,160,13.0,21.0,37,0.00,,,0.00,373.000000,,2013-10-10 21:54:00,
2013-10-10 17:43:00,69.0,43.0,-100.00,SSE,157,14.0,21.0,39,0.00,,,0.00,250.000000,,2013-10-10 22:43:00,
2013-10-10 17:53:00,69.0,43.0,-100.00,SSE,157,14.0,21.0,39,0.00,,,0.00,250.000000,,2013-10-10 22:53:00,
2013-10-10 18:03:00,69.0,43.0,-100.00,SSE,157,14.0,21.0,39,0.00,,,0.00,250.000000,,2013-10-10 23:03:00,
2013-10-10 18:23:00,64.0,42.0,-100.00,SE,135,8.0,21.0,45,0.00,,,0.00,63.000000,,2013-10-10 23:23:00,
2013-10-10 18:33:00,64.0,42.0,-100.00,SE,135,8.0,21.0,45,0.00,,,0.00,63.000000,,2013-10-10 23:33:00,
2013-10-10 18:43:00,64.0,42.0,-100.00,SE,135,8.0,21.0,45,0.00,,,0.00,63.000000,,2013-10-10 23:43:00,
2013-10-10 18:53:00,64.0,42.0,-100.00,SE,135,8.0,21.0,45,0.00,,,0.00,63.000000,,2013-10-10 23:53:00,
2013-10-10 19:02:00,64.0,42.0,-100.00,SE,135,8.0,21.0,45,0.00,,,0.00,63.000000,,2013-10-11 00:02:00,
2013-10-10 19:42:00,61.0,46.0,-100.00,SE,144,9.0,15.0,57,0.00,,,0.00,6.000000,,2013-10-11 00:42:00,
2013-10-10 19:52:00,61.0,46.0,-100.00,SE,144,9.0,15.0,57,0.00,,,0.00,6.000000,,2013-10-11 00:52:00,
2013-10-10 20:01:00,61.0,46.0,-100.00,SE,144,9.0,15.0,57,0.00,,,0.00,6.000000,,2013-10-11 01:01:00,
2013-10-10 20:42:00,59.0,45.0,-100.00,SE,138,9.0,16.0,59,0.00,,,0.00,0.000000,,2013-10-11 01:42:00,
2013-10-10 20:52:00,59.0,45.0,-100.00,SE,138,9.0,16.0,59,0.00,,,0.00,0.000000,,2013-10-11 01:52:00,
2013-10-10 21:02:00,59.0,45.0,-100.00,SE,138,9.0,16.0,59,0.00,,,0.00,0.000000,,2013-10-11 02:02:00,
2013-10-10 21:42:00,58.0,43.0,-100.00,SE,144,10.0,14.0,58,0.00,,,0.00,0.000000,,2013-10-11 02:42:00,
2013-10-10 21:52:00,58.0,43.0,-100.00,SE,144,10.0,14.0,58,0.00,,,0.00,0.000000,,2013-10-11 02:52:00,
2013-10-10 22:02:00,58.0,43.0,-100.00,SE,144,10.0,14.0,58,0.00,,,0.00,0.000000,,2013-10-11 03:02:00,
2013-10-10 22:04:00,57.0,42.0,-100.00,SE,139,10.0,16.0,57,0.00,,,0.00,0.000000,,2013-10-11 03:04:00,
2013-10-10 22:45:00,57.0,42.0,-100.00,SE,139,10.0,16.0,57,0.00,,,0.00,0.000000,,2013-10-11 03:45:00,
2013-10-10 22:54:00,57.0,42.0,-100.00,SE,139,10.0,16.0,57,0.00,,,0.00,0.000000,,2013-10-11 03:54:00,
2013-10-10 23:44:00,55.0,42.0,-100.00,SE,135,8.0,15.0,62,0.00,,,0.00,0.000000,,2013-10-11 04:44:00,
2013-10-10 23:53:00,55.0,42.0,-100.00,SE,135,8.0,15.0,62,0.00,,,0.00,0.000000,,2013-10-11 04:53:00,